• In Deutschland
  • Länderverzeichnis
  • Für 7 Tage
  • Wassertemperatur
  • Satellitenkarten
  • Wetterkarte
  • Widgets
  • user-avatar
    Anmelden

    Stündliche Wetter Lautaro

    Heute, 22 Juni, Freitag

    Zeit Temperatur Niederschläge Wind Luftdruck Luftfeuchtigkeit
    00:00 +6°C° 0 mm 1 m/S 743 mmHg 94%
    01:00 +6°C° 0 mm 1 m/S 743 mmHg 93%
    02:00 +5°C° 0 mm 1 m/S 743 mmHg 93%
    03:00 +5°C° 0 mm 1 m/S 742 mmHg 93%
    04:00 +5°C° 0 mm 1 m/S 742 mmHg 93%
    05:00 +5°C° 0 mm 1 m/S 742 mmHg 92%
    06:00 +6°C° 0 mm 1 m/S 742 mmHg 92%
    07:00 +6°C° 0 mm 1 m/S 742 mmHg 92%
    08:00 +7°C° 0 mm 1 m/S 741 mmHg 88%
    09:00 +8°C° 0 mm 1 m/S 741 mmHg 85%
    10:00 +10°C° 0 mm 1 m/S 741 mmHg 82%
    11:00 +10°C° 0,1 mm 1 m/S 741 mmHg 82%
    12:00 +11°C° 0,1 mm 1 m/S 740 mmHg 82%
    13:00 +11°C° 0,1 mm 1 m/S 740 mmHg 82%
    14:00 +10°C° 0,6 mm 2 m/S 740 mmHg 85%
    15:00 +9°C° 0,6 mm 2 m/S 740 mmHg 88%
    16:00 +9°C° 0,6 mm 2 m/S 739 mmHg 92%
    17:00 +9°C° 0,8 mm 2 m/S 740 mmHg 93%
    18:00 +9°C° 0,8 mm 2 m/S 740 mmHg 95%
    19:00 +8°C° 0,8 mm 2 m/S 740 mmHg 96%
    20:00 +8°C° 1 mm 2 m/S 740 mmHg 96%
    21:00 +8°C° 1 mm 2 m/S 741 mmHg 96%
    22:00 +8°C° 1 mm 2 m/S 741 mmHg 96%
    23:00 +9°C° 0,5 mm 1 m/S 741 mmHg 97%

    Morgen, 23 Juni, Samstag

    Zeit Temperatur Niederschläge Wind Luftdruck Luftfeuchtigkeit
    00:00 +8°C° 0,5 mm 1 m/S 742 mmHg 97%
    01:00 +8°C° 0,5 mm 1 m/S 742 mmHg 97%
    02:00 +7°C° 0 mm 1 m/S 743 mmHg 97%
    03:00 +6°C° 0 mm 0 m/S 743 mmHg 97%
    04:00 +5°C° 0 mm 0 m/S 743 mmHg 98%
    05:00 +5°C° 0 mm 0 m/S 744 mmHg 97%
    06:00 +4°C° 0 mm 0 m/S 745 mmHg 97%
    07:00 +4°C° 0 mm 0 m/S 745 mmHg 97%
    08:00 +6°C° 0 mm 1 m/S 746 mmHg 93%
    09:00 +7°C° 0 mm 1 m/S 747 mmHg 90%
    10:00 +9°C° 0 mm 1 m/S 747 mmHg 86%
    11:00 +9°C° 0 mm 1 m/S 747 mmHg 83%
    12:00 +9°C° 0 mm 1 m/S 746 mmHg 80%
    13:00 +9°C° 0 mm 2 m/S 746 mmHg 77%
    14:00 +8°C° 0 mm 2 m/S 746 mmHg 80%
    15:00 +8°C° 0 mm 1 m/S 746 mmHg 82%
    16:00 +7°C° 0 mm 1 m/S 746 mmHg 85%
    17:00 +6°C° 0 mm 1 m/S 746 mmHg 88%
    18:00 +5°C° 0 mm 1 m/S 746 mmHg 90%
    19:00 +4°C° 0 mm 1 m/S 746 mmHg 93%
    20:00 +3°C° 0 mm 1 m/S 746 mmHg 92%
    21:00 +3°C° 0 mm 1 m/S 746 mmHg 90%
    22:00 +3°C° 0 mm 1 m/S 746 mmHg 88%
    23:00 +2°C° 0 mm 1 m/S 745 mmHg 87%

    übermorgen, 24 Juni, Sonntag

    Zeit Temperatur Niederschläge Wind Luftdruck Luftfeuchtigkeit
    00:00 +2°C° 0 mm 1 m/S 745 mmHg 86%
    01:00 +2°C° 0 mm 1 m/S 745 mmHg 84%
    02:00 +1°C° 0 mm 1 m/S 744 mmHg 83%
    03:00 +1°C° 0 mm 1 m/S 744 mmHg 82%
    04:00 +1°C° 0 mm 1 m/S 743 mmHg 81%
    05:00 +1°C° 0 mm 1 m/S 743 mmHg 79%
    06:00 +1°C° 0 mm 1 m/S 743 mmHg 78%
    07:00 0°C° 0 mm 1 m/S 743 mmHg 76%
    08:00 +2°C° 0 mm 1 m/S 743 mmHg 69%
    09:00 +4°C° 0 mm 1 m/S 743 mmHg 63%
    10:00 +7°C° 0 mm 1 m/S 743 mmHg 56%
    11:00 +8°C° 0 mm 1 m/S 743 mmHg 54%
    12:00 +8°C° 0 mm 2 m/S 743 mmHg 52%
    13:00 +9°C° 0 mm 2 m/S 742 mmHg 50%
    14:00 +9°C° 0 mm 1 m/S 742 mmHg 57%
    15:00 +8°C° 0 mm 1 m/S 743 mmHg 64%
    16:00 +7°C° 0 mm 1 m/S 743 mmHg 71%
    17:00 +6°C° 0 mm 1 m/S 743 mmHg 75%
    18:00 +5°C° 0 mm 1 m/S 743 mmHg 79%
    19:00 +3°C° 0 mm 0 m/S 744 mmHg 83%
    20:00 +4°C° 0 mm 1 m/S 744 mmHg 84%
    21:00 +4°C° 0 mm 1 m/S 744 mmHg 84%
    22:00 +4°C° 0 mm 1 m/S 745 mmHg 84%
    23:00 +4°C° 0 mm 1 m/S 745 mmHg 85%

    25 Juni, Montag

    Zeit Temperatur Niederschläge Wind Luftdruck Luftfeuchtigkeit
    00:00 +4°C° 0 mm 1 m/S 745 mmHg 86%
    01:00 +4°C° 0 mm 1 m/S 745 mmHg 87%
    02:00 +4°C° 0 mm 1 m/S 744 mmHg 88%
    03:00 +4°C° 0 mm 1 m/S 744 mmHg 89%
    04:00 +4°C° 0 mm 1 m/S 744 mmHg 90%
    05:00 +4°C° 0 mm 1 m/S 744 mmHg 91%
    06:00 +3°C° 0 mm 0 m/S 744 mmHg 91%
    07:00 +3°C° 0 mm 0 m/S 744 mmHg 92%
    08:00 +5°C° 0 mm 0 m/S 744 mmHg 86%
    09:00 +7°C° 0 mm 0 m/S 744 mmHg 80%
    10:00 +9°C° 0 mm 0 m/S 744 mmHg 74%
    11:00 +10°C° 0 mm 0 m/S 743 mmHg 72%
    12:00 +11°C° 0 mm 0 m/S 743 mmHg 70%
    13:00 +12°C° 0 mm 0 m/S 742 mmHg 67%
    14:00 +11°C° 0 mm 0 m/S 742 mmHg 73%
    15:00 +10°C° 0 mm 0 m/S 742 mmHg 79%
    16:00 +9°C° 0 mm 0 m/S 741 mmHg 84%
    17:00 +8°C° 0 mm 0 m/S 741 mmHg 88%
    18:00 +8°C° 0 mm 1 m/S 741 mmHg 91%
    19:00 +7°C° 0 mm 1 m/S 741 mmHg 94%
    20:00 +7°C° 0 mm 1 m/S 741 mmHg 93%
    21:00 +7°C° 0 mm 1 m/S 741 mmHg 93%
    22:00 +6°C° 0 mm 1 m/S 741 mmHg 93%
    23:00 +7°C° 0,1 mm 1 m/S 740 mmHg 92%

    26 Juni, Dienstag

    Zeit Temperatur Niederschläge Wind Luftdruck Luftfeuchtigkeit
    00:00 +7°C° 0,1 mm 1 m/S 740 mmHg 91%
    01:00 +7°C° 0,1 mm 1 m/S 740 mmHg 90%
    02:00 +7°C° 0,6 mm 1 m/S 739 mmHg 90%
    03:00 +7°C° 0,6 mm 1 m/S 739 mmHg 90%
    04:00 +6°C° 0,6 mm 2 m/S 738 mmHg 90%
    05:00 +6°C° 1,3 mm 2 m/S 738 mmHg 90%
    06:00 +6°C° 1,3 mm 2 m/S 738 mmHg 90%
    07:00 +6°C° 1,3 mm 2 m/S 738 mmHg 91%
    08:00 +7°C° 1,8 mm 3 m/S 738 mmHg 91%
    09:00 +7°C° 1,8 mm 3 m/S 738 mmHg 91%
    10:00 +7°C° 1,8 mm 3 m/S 738 mmHg 91%
    11:00 +6°C° 1,6 mm 4 m/S 737 mmHg 92%
    12:00 +7°C° 1,6 mm 4 m/S 737 mmHg 92%
    13:00 +7°C° 1,6 mm 4 m/S 736 mmHg 93%
    14:00 +7°C° 2,1 mm 4 m/S 736 mmHg 93%
    15:00 +8°C° 2,1 mm 4 m/S 736 mmHg 93%
    16:00 +8°C° 2,1 mm 5 m/S 735 mmHg 93%
    17:00 +8°C° 3,2 mm 5 m/S 735 mmHg 93%
    18:00 +8°C° 3,2 mm 5 m/S 735 mmHg 94%
    19:00 +9°C° 3,2 mm 5 m/S 735 mmHg 94%
    20:00 +10°C° 3,5 mm 4 m/S 735 mmHg 94%
    21:00 +10°C° 3,5 mm 4 m/S 735 mmHg 95%
    22:00 +10°C° 3,5 mm 3 m/S 736 mmHg 95%
    23:00 +10°C° 1,3 mm 3 m/S 736 mmHg 96%

    27 Juni, Mittwoch

    Zeit Temperatur Niederschläge Wind Luftdruck Luftfeuchtigkeit
    00:00 +9°C° 1,3 mm 2 m/S 736 mmHg 96%
    01:00 +9°C° 1,3 mm 2 m/S 737 mmHg 96%
    02:00 +9°C° 0,2 mm 1 m/S 737 mmHg 96%
    03:00 +9°C° 0,2 mm 1 m/S 737 mmHg 96%
    04:00 +9°C° 0,2 mm 1 m/S 737 mmHg 96%
    05:00 +9°C° 0,1 mm 1 m/S 737 mmHg 95%
    06:00 +9°C° 0,1 mm 1 m/S 738 mmHg 95%
    07:00 +9°C° 0,1 mm 1 m/S 738 mmHg 95%
    08:00 +8°C° 0,1 mm 2 m/S 738 mmHg 93%
    09:00 +9°C° 0,1 mm 2 m/S 738 mmHg 90%
    10:00 +10°C° 0,1 mm 3 m/S 739 mmHg 88%
    11:00 +10°C° 0,2 mm 3 m/S 738 mmHg 87%
    12:00 +10°C° 0,2 mm 3 m/S 738 mmHg 87%
    13:00 +10°C° 0,2 mm 3 m/S 738 mmHg 87%
    14:00 +9°C° 0,2 mm 3 m/S 738 mmHg 87%
    15:00 +9°C° 0,2 mm 2 m/S 738 mmHg 88%
    16:00 +9°C° 0,2 mm 2 m/S 738 mmHg 88%
    17:00 +8°C° 0,2 mm 2 m/S 738 mmHg 90%
    18:00 +8°C° 0,2 mm 2 m/S 738 mmHg 91%
    19:00 +8°C° 0,2 mm 2 m/S 738 mmHg 92%
    20:00 +8°C° 0,1 mm 2 m/S 737 mmHg 92%
    21:00 +8°C° 0,1 mm 3 m/S 737 mmHg 91%
    22:00 +8°C° 0,1 mm 3 m/S 737 mmHg 91%
    23:00 +8°C° 0,2 mm 3 m/S 737 mmHg 91%
    Mehr zeigen